Time,TemperatureF,DewpointF,PressureIn,WindDirection,WindDirectionDegrees,WindSpeedMPH,WindSpeedGustMPH,Humidity,HourlyPrecipIn,Conditions,Clouds,dailyrainin,SoftwareType,DateUTC
2013-01-13 00:00:00,25.1,19.5,30.16,ENE,61,0.0,0.0,79,0.00,,BKN065,0.18,VWS V14.01,2013-01-13 06:00:00,
2013-01-13 00:05:00,25.0,19.4,30.16,ENE,61,0.0,0.0,79,0.00,,FEW070,0.00,VWS V14.01,2013-01-13 06:05:00,
2013-01-13 00:10:00,24.8,19.2,30.16,ENE,61,0.0,0.0,79,0.00,,FEW070,0.00,VWS V14.01,2013-01-13 06:10:00,
2013-01-13 00:15:00,24.8,19.2,30.14,ENE,61,0.0,0.0,79,0.00,,FEW070,0.00,VWS V14.01,2013-01-13 06:15:00,
2013-01-13 00:20:00,24.8,19.2,30.14,ENE,61,0.0,0.0,79,0.00,,FEW070,0.00,VWS V14.01,2013-01-13 06:20:00,
2013-01-13 00:25:00,24.8,19.2,30.14,ENE,61,0.0,0.0,79,0.00,,FEW070,0.00,VWS V14.01,2013-01-13 06:25:00,
2013-01-13 00:31:00,24.8,19.2,30.15,ENE,61,0.0,0.0,79,0.00,,FEW070,0.00,VWS V14.01,2013-01-13 06:31:00,
2013-01-13 00:36:00,24.8,19.2,30.15,ENE,61,0.0,0.0,79,0.00,,FEW070,0.00,VWS V14.01,2013-01-13 06:36:00,
2013-01-13 00:41:00,24.7,18.8,30.15,ENE,61,0.0,0.0,78,0.00,,FEW070,0.00,VWS V14.01,2013-01-13 06:41:00,
2013-01-13 00:46:00,24.7,18.8,30.11,ENE,61,0.0,0.0,78,0.00,,FEW070,0.00,VWS V14.01,2013-01-13 06:46:00,
2013-01-13 00:51:00,24.7,18.8,30.11,ENE,61,0.0,0.0,78,0.00,,FEW070,0.00,VWS V14.01,2013-01-13 06:51:00,
2013-01-13 00:56:00,24.8,18.9,30.11,ENE,61,0.0,0.0,78,0.00,,FEW070,0.00,VWS V14.01,2013-01-13 06:56:00,
2013-01-13 01:01:00,24.7,18.8,30.09,ENE,61,0.0,0.0,78,0.00,,BKN110,0.00,VWS V14.01,2013-01-13 07:01:00,
2013-01-13 01:06:00,24.7,18.8,30.09,ENE,61,0.0,0.0,78,0.00,,BKN110,0.00,VWS V14.01,2013-01-13 07:06:00,
2013-01-13 01:11:00,24.7,18.5,30.09,ENE,61,0.0,0.0,77,0.00,,BKN110,0.00,VWS V14.01,2013-01-13 07:11:00,
2013-01-13 01:16:00,24.5,18.3,30.09,ENE,61,0.0,0.0,77,0.00,,BKN110,0.00,VWS V14.01,2013-01-13 07:16:00,
2013-01-13 01:21:00,24.7,18.5,30.09,ENE,61,0.0,0.0,77,0.00,,BKN110,0.00,VWS V14.01,2013-01-13 07:21:00,
2013-01-13 01:26:00,24.7,18.5,30.09,ENE,61,0.0,0.0,77,0.00,,BKN110,0.00,VWS V14.01,2013-01-13 07:26:00,
2013-01-13 01:31:00,24.7,18.5,30.14,ENE,61,0.0,0.0,77,0.00,,BKN110,0.00,VWS V14.01,2013-01-13 07:31:00,
2013-01-13 01:36:00,24.7,18.2,30.14,ENE,61,0.0,0.0,76,0.00,,BKN110,0.00,VWS V14.01,2013-01-13 07:36:00,
2013-01-13 01:41:00,24.5,18.0,30.14,ENE,61,0.0,0.0,76,0.00,,BKN110,0.00,VWS V14.01,2013-01-13 07:41:00,
2013-01-13 01:46:00,24.4,17.9,30.08,ENE,61,0.0,0.0,76,0.00,,BKN110,0.00,VWS V14.01,2013-01-13 07:46:00,
2013-01-13 01:51:00,24.4,17.9,30.08,ENE,61,0.0,0.0,76,0.00,,BKN110,0.00,VWS V14.01,2013-01-13 07:51:00,
2013-01-13 01:56:00,24.4,17.9,30.08,ENE,61,0.0,0.0,76,0.00,,BKN110,0.00,VWS V14.01,2013-01-13 07:56:00,
2013-01-13 02:01:00,24.4,18.2,30.13,ENE,61,0.0,0.0,77,0.00,,OVC110,0.00,VWS V14.01,2013-01-13 08:01:00,
2013-01-13 02:06:00,24.4,17.9,30.13,ENE,61,0.0,0.0,76,0.00,,OVC110,0.00,VWS V14.01,2013-01-13 08:06:00,
2013-01-13 02:11:00,24.5,18.0,30.13,ENE,61,0.0,0.0,76,0.00,,OVC110,0.00,VWS V14.01,2013-01-13 08:11:00,
2013-01-13 02:16:00,24.5,18.0,30.15,ENE,61,0.0,0.0,76,0.00,,OVC110,0.00,VWS V14.01,2013-01-13 08:16:00,
2013-01-13 02:22:00,24.5,18.0,30.15,ENE,61,0.0,0.0,76,0.00,,OVC110,0.00,VWS V14.01,2013-01-13 08:22:00,
2013-01-13 02:27:00,24.5,17.7,30.15,ENE,61,0.0,0.0,75,0.00,,OVC110,0.00,VWS V14.01,2013-01-13 08:27:00,
2013-01-13 02:32:00,24.5,17.7,30.16,ENE,61,0.0,0.0,75,0.00,,OVC110,0.00,VWS V14.01,2013-01-13 08:32:00,
2013-01-13 02:37:00,24.5,18.0,30.16,ENE,61,0.0,0.0,76,0.00,,OVC110,0.00,VWS V14.01,2013-01-13 08:37:00,
2013-01-13 02:42:00,24.5,17.7,30.16,ENE,61,0.0,0.0,75,0.00,,OVC110,0.00,VWS V14.01,2013-01-13 08:42:00,
2013-01-13 02:47:00,24.5,17.4,30.16,ENE,61,0.0,0.0,74,0.00,,OVC110,0.00,VWS V14.01,2013-01-13 08:47:00,
2013-01-13 02:52:00,24.5,17.4,30.16,ENE,61,0.0,0.0,74,0.00,,OVC110,0.00,VWS V14.01,2013-01-13 08:52:00,
2013-01-13 02:57:00,24.5,17.4,30.16,ENE,61,0.0,0.0,74,0.00,,OVC110,0.00,VWS V14.01,2013-01-13 08:57:00,
2013-01-13 03:02:00,24.5,17.1,30.19,ENE,61,0.0,0.0,73,0.00,,OVC090,0.00,VWS V14.01,2013-01-13 09:02:00,
2013-01-13 03:07:00,24.5,17.4,30.19,ENE,61,0.0,0.0,74,0.00,,OVC090,0.00,VWS V14.01,2013-01-13 09:07:00,
2013-01-13 03:12:00,24.5,17.7,30.19,ENE,61,0.0,0.0,75,0.00,,OVC090,0.00,VWS V14.01,2013-01-13 09:12:00,
2013-01-13 03:17:00,24.4,17.3,30.19,ENE,61,0.0,0.0,74,0.00,,OVC090,0.00,VWS V14.01,2013-01-13 09:17:00,
2013-01-13 03:22:00,24.4,17.3,30.19,ENE,61,0.0,0.0,74,0.00,,OVC090,0.00,VWS V14.01,2013-01-13 09:22:00,
2013-01-13 03:27:00,24.4,17.3,30.19,ENE,61,0.0,0.0,74,0.00,,OVC090,0.00,VWS V14.01,2013-01-13 09:27:00,
2013-01-13 03:32:00,24.4,17.3,30.17,ENE,61,0.0,0.0,74,0.00,,OVC090,0.00,VWS V14.01,2013-01-13 09:32:00,
2013-01-13 03:37:00,24.4,17.3,30.17,ENE,61,0.0,0.0,74,0.00,,OVC090,0.00,VWS V14.01,2013-01-13 09:37:00,
2013-01-13 03:42:00,24.4,17.3,30.17,ENE,61,0.0,0.0,74,0.00,,OVC090,0.00,VWS V14.01,2013-01-13 09:42:00,
2013-01-13 03:47:00,24.4,17.6,30.20,ENE,61,0.0,0.0,75,0.00,,OVC090,0.00,VWS V14.01,2013-01-13 09:47:00,
2013-01-13 03:52:00,24.4,17.6,30.20,ENE,61,0.0,0.0,75,0.00,,OVC090,0.00,VWS V14.01,2013-01-13 09:52:00,
2013-01-13 03:57:00,24.2,17.7,30.20,ENE,61,0.0,0.0,76,0.00,,OVC090,0.00,VWS V14.01,2013-01-13 09:57:00,
2013-01-13 04:02:00,24.2,17.4,30.20,ENE,61,0.0,0.0,75,0.00,,OVC110,0.00,VWS V14.01,2013-01-13 10:02:00,
2013-01-13 04:07:00,24.1,17.0,30.20,ENE,61,0.0,0.0,74,0.00,,OVC110,0.00,VWS V14.01,2013-01-13 10:07:00,
2013-01-13 04:12:00,24.1,17.0,30.20,ENE,61,0.0,0.0,74,0.00,,OVC110,0.00,VWS V14.01,2013-01-13 10:12:00,
2013-01-13 04:18:00,23.9,17.1,30.17,ENE,61,0.0,0.0,75,0.00,,OVC110,0.00,VWS V14.01,2013-01-13 10:18:00,
2013-01-13 04:23:00,23.9,17.1,30.17,ENE,61,0.0,0.0,75,0.00,,OVC110,0.00,VWS V14.01,2013-01-13 10:23:00,
2013-01-13 04:28:00,23.9,17.1,30.17,ENE,61,0.0,0.0,75,0.00,,OVC110,0.00,VWS V14.01,2013-01-13 10:28:00,
2013-01-13 04:33:00,23.9,16.8,30.23,ENE,61,0.0,0.0,74,0.00,,OVC110,0.00,VWS V14.01,2013-01-13 10:33:00,
2013-01-13 04:38:00,23.8,16.4,30.23,ENE,61,0.0,0.0,73,0.00,,OVC110,0.00,VWS V14.01,2013-01-13 10:38:00,
2013-01-13 04:43:00,23.6,15.9,30.23,ENE,61,0.0,0.0,72,0.00,,OVC110,0.00,VWS V14.01,2013-01-13 10:43:00,
2013-01-13 04:48:00,23.5,15.8,30.20,ENE,61,0.0,0.0,72,0.00,,OVC110,0.00,VWS V14.01,2013-01-13 10:48:00,
2013-01-13 04:53:00,23.5,15.8,30.20,ENE,61,0.0,0.0,72,0.00,,OVC110,0.00,VWS V14.01,2013-01-13 10:53:00,
2013-01-13 04:58:00,23.3,15.6,30.20,ENE,61,0.0,0.0,72,0.00,,OVC110,0.00,VWS V14.01,2013-01-13 10:58:00,
2013-01-13 05:03:00,23.3,15.6,30.24,ENE,61,0.0,0.0,72,0.00,,FEW120,0.00,VWS V14.01,2013-01-13 11:03:00,
2013-01-13 05:08:00,23.2,15.5,30.24,ENE,61,0.0,0.0,72,0.00,,FEW120,0.00,VWS V14.01,2013-01-13 11:08:00,
2013-01-13 05:13:00,23.0,15.6,30.24,ENE,61,0.0,0.0,73,0.00,,FEW120,0.00,VWS V14.01,2013-01-13 11:13:00,
2013-01-13 05:18:00,22.9,15.9,30.23,ENE,61,0.0,0.0,74,0.00,,FEW120,0.00,VWS V14.01,2013-01-13 11:18:00,
2013-01-13 05:23:00,22.9,15.9,30.23,ENE,61,0.0,0.0,74,0.00,,FEW120,0.00,VWS V14.01,2013-01-13 11:23:00,
2013-01-13 05:28:00,22.7,16.0,30.23,ENE,61,0.0,0.0,75,0.00,,FEW120,0.00,VWS V14.01,2013-01-13 11:28:00,
2013-01-13 05:33:00,22.5,15.8,30.21,ENE,61,0.0,0.0,75,0.00,,FEW120,0.00,VWS V14.01,2013-01-13 11:33:00,
2013-01-13 05:38:00,22.2,15.8,30.21,ENE,61,0.0,0.0,76,0.00,,FEW120,0.00,VWS V14.01,2013-01-13 11:38:00,
2013-01-13 05:43:00,22.2,15.8,30.21,ENE,61,0.0,0.0,76,0.00,,FEW120,0.00,VWS V14.01,2013-01-13 11:43:00,
2013-01-13 05:48:00,22.1,15.7,30.22,ENE,61,0.0,0.0,76,0.00,,FEW120,0.00,VWS V14.01,2013-01-13 11:48:00,
2013-01-13 05:53:00,21.9,15.5,30.22,ENE,61,0.0,0.0,76,0.00,,FEW120,0.00,VWS V14.01,2013-01-13 11:53:00,
2013-01-13 05:58:00,21.8,14.8,30.22,ENE,61,0.0,0.0,74,0.00,,FEW120,0.00,VWS V14.01,2013-01-13 11:58:00,
2013-01-13 06:03:00,21.4,14.4,30.22,ENE,61,0.0,0.0,74,0.00,,SCT120,0.00,VWS V14.01,2013-01-13 12:03:00,
2013-01-13 06:08:00,21.3,14.3,30.22,ENE,61,0.0,0.0,74,0.00,,SCT120,0.00,VWS V14.01,2013-01-13 12:08:00,
2013-01-13 06:14:00,21.1,13.5,30.22,ENE,61,0.0,0.0,72,0.00,,SCT120,0.00,VWS V14.01,2013-01-13 12:14:00,
2013-01-13 06:19:00,20.8,13.2,30.22,ENE,61,0.0,0.0,72,0.00,,SCT120,0.00,VWS V14.01,2013-01-13 12:19:00,
2013-01-13 06:24:00,20.6,13.0,30.22,ENE,61,0.0,0.0,72,0.00,,SCT120,0.00,VWS V14.01,2013-01-13 12:24:00,
2013-01-13 06:29:00,20.5,12.6,30.22,ENE,61,0.0,0.0,71,0.00,,SCT120,0.00,VWS V14.01,2013-01-13 12:29:00,
2013-01-13 06:34:00,20.5,12.9,30.24,ENE,61,0.0,0.0,72,0.00,,SCT120,0.00,VWS V14.01,2013-01-13 12:34:00,
2013-01-13 06:39:00,20.2,12.6,30.24,ENE,61,0.0,0.0,72,0.00,,SCT120,0.00,VWS V14.01,2013-01-13 12:39:00,
2013-01-13 06:44:00,20.2,12.9,30.24,ENE,61,0.0,0.0,73,0.00,,SCT120,0.00,VWS V14.01,2013-01-13 12:44:00,
2013-01-13 06:49:00,19.9,12.7,30.25,ENE,61,0.0,0.0,73,0.00,,SCT120,0.00,VWS V14.01,2013-01-13 12:49:00,
2013-01-13 06:54:00,19.7,12.5,30.25,ENE,61,0.0,0.0,73,0.00,,SCT120,0.00,VWS V14.01,2013-01-13 12:54:00,
2013-01-13 06:59:00,19.5,12.0,30.25,ENE,61,0.0,0.0,72,0.00,,SCT120,0.00,VWS V14.01,2013-01-13 12:59:00,
2013-01-13 07:04:00,19.2,10.7,30.26,ENE,61,0.0,0.0,69,0.00,,CLR,0.00,VWS V14.01,2013-01-13 13:04:00,
2013-01-13 07:09:00,19.1,10.6,30.26,ENE,61,0.0,0.0,69,0.00,,CLR,0.00,VWS V14.01,2013-01-13 13:09:00,
2013-01-13 07:14:00,18.9,10.4,30.26,ENE,61,0.0,0.0,69,0.00,,CLR,0.00,VWS V14.01,2013-01-13 13:14:00,
2013-01-13 07:19:00,18.8,10.6,30.27,ENE,61,0.0,0.0,70,0.00,,CLR,0.00,VWS V14.01,2013-01-13 13:19:00,
2013-01-13 07:24:00,18.6,10.5,30.27,ENE,61,0.0,0.0,70,0.00,,CLR,0.00,VWS V14.01,2013-01-13 13:24:00,
2013-01-13 07:29:00,18.4,10.3,30.27,ENE,61,0.0,0.0,70,0.00,,CLR,0.00,VWS V14.01,2013-01-13 13:29:00,
2013-01-13 07:34:00,18.4,10.3,30.27,ENE,61,0.0,0.0,70,0.00,,CLR,0.00,VWS V14.01,2013-01-13 13:34:00,
2013-01-13 07:39:00,18.3,10.5,30.27,ENE,61,0.0,0.0,71,0.00,,CLR,0.00,VWS V14.01,2013-01-13 13:39:00,
2013-01-13 07:45:00,18.3,10.2,30.28,ENE,61,0.0,0.0,70,0.00,,CLR,0.00,VWS V14.01,2013-01-13 13:45:00,
2013-01-13 07:50:00,18.3,10.2,30.28,ENE,61,0.0,0.0,70,0.00,,CLR,0.00,VWS V14.01,2013-01-13 13:50:00,
2013-01-13 07:55:00,18.1,10.0,30.28,ENE,61,0.0,0.0,70,0.00,,CLR,0.00,VWS V14.01,2013-01-13 13:55:00,
2013-01-13 08:00:00,18.3,10.2,30.29,ENE,61,0.0,0.0,70,0.00,,CLR,0.00,VWS V14.01,2013-01-13 14:00:00,
2013-01-13 08:05:00,18.3,10.2,30.29,ENE,61,0.0,0.0,70,0.00,,CLR,0.00,VWS V14.01,2013-01-13 14:05:00,
2013-01-13 08:10:00,18.3,10.2,30.29,ENE,61,0.0,0.0,70,0.00,,CLR,0.00,VWS V14.01,2013-01-13 14:10:00,
2013-01-13 08:15:00,18.3,10.2,30.31,ENE,61,0.0,0.0,70,0.00,,CLR,0.00,VWS V14.01,2013-01-13 14:15:00,
2013-01-13 08:20:00,18.4,10.3,30.31,ENE,61,0.0,0.0,70,0.00,,CLR,0.00,VWS V14.01,2013-01-13 14:20:00,
2013-01-13 08:25:00,18.4,10.3,30.31,ENE,61,0.0,0.0,70,0.00,,CLR,0.00,VWS V14.01,2013-01-13 14:25:00,
2013-01-13 08:30:00,18.6,10.5,30.32,ENE,61,0.0,0.0,70,0.00,,CLR,0.00,VWS V14.01,2013-01-13 14:30:00,
2013-01-13 08:35:00,18.6,10.5,30.32,ENE,61,0.0,0.0,70,0.00,,CLR,0.00,VWS V14.01,2013-01-13 14:35:00,
2013-01-13 08:40:00,18.8,10.6,30.32,ENE,61,0.0,0.0,70,0.00,,CLR,0.00,VWS V14.01,2013-01-13 14:40:00,
2013-01-13 08:45:00,18.8,10.3,30.33,ENE,61,0.0,0.0,69,0.00,,CLR,0.00,VWS V14.01,2013-01-13 14:45:00,
2013-01-13 08:50:00,19.2,11.0,30.33,ENE,61,0.0,0.0,70,0.00,,CLR,0.00,VWS V14.01,2013-01-13 14:50:00,
2013-01-13 08:55:00,19.5,11.6,30.33,ENE,61,0.0,0.0,71,0.00,,CLR,0.00,VWS V14.01,2013-01-13 14:55:00,
2013-01-13 09:00:00,19.9,11.7,30.35,ENE,61,0.0,0.0,70,0.00,,CLR,0.00,VWS V14.01,2013-01-13 15:00:00,
2013-01-13 09:05:00,20.2,12.3,30.35,ENE,61,0.0,0.0,71,0.00,,CLR,0.00,VWS V14.01,2013-01-13 15:05:00,
2013-01-13 09:10:00,20.3,12.1,30.35,ENE,61,0.0,0.0,70,0.00,,CLR,0.00,VWS V14.01,2013-01-13 15:10:00,
2013-01-13 09:15:00,20.5,12.0,30.36,ENE,61,0.0,0.0,69,0.00,,CLR,0.00,VWS V14.01,2013-01-13 15:15:00,
2013-01-13 09:21:00,20.5,11.6,30.36,ENE,61,0.0,0.0,68,0.00,,CLR,0.00,VWS V14.01,2013-01-13 15:21:00,
2013-01-13 09:26:00,20.6,12.4,30.36,ENE,61,0.0,0.0,70,0.00,,CLR,0.00,VWS V14.01,2013-01-13 15:26:00,
2013-01-13 09:31:00,21.0,12.8,30.36,ENE,61,0.0,0.0,70,0.00,,CLR,0.00,VWS V14.01,2013-01-13 15:31:00,
2013-01-13 09:36:00,21.1,12.5,30.36,ENE,61,0.0,0.0,69,0.00,,CLR,0.00,VWS V14.01,2013-01-13 15:36:00,
2013-01-13 09:41:00,21.0,11.8,30.36,ENE,61,0.0,0.0,67,0.00,,CLR,0.00,VWS V14.01,2013-01-13 15:41:00,
2013-01-13 09:46:00,21.1,12.2,30.36,ENE,61,0.0,0.0,68,0.00,,CLR,0.00,VWS V14.01,2013-01-13 15:46:00,
2013-01-13 09:51:00,21.3,12.4,30.36,ENE,61,0.0,0.0,68,0.00,,CLR,0.00,VWS V14.01,2013-01-13 15:51:00,
2013-01-13 09:56:00,21.6,13.0,30.36,ENE,61,0.0,0.0,69,0.00,,CLR,0.00,VWS V14.01,2013-01-13 15:56:00,
2013-01-13 10:01:00,21.8,12.9,30.36,ENE,61,0.0,0.0,68,0.00,,CLR,0.00,VWS V14.01,2013-01-13 16:01:00,
2013-01-13 10:06:00,21.9,13.0,30.36,ENE,61,0.0,0.0,68,0.00,,CLR,0.00,VWS V14.01,2013-01-13 16:06:00,
2013-01-13 10:11:00,21.8,12.5,30.36,ENE,61,0.0,0.0,67,0.00,,CLR,0.00,VWS V14.01,2013-01-13 16:11:00,
2013-01-13 10:16:00,21.9,13.0,30.37,ENE,61,0.0,0.0,68,0.00,,CLR,0.00,VWS V14.01,2013-01-13 16:16:00,
2013-01-13 10:21:00,22.2,13.6,30.37,ENE,61,0.0,0.0,69,0.00,,CLR,0.00,VWS V14.01,2013-01-13 16:21:00,
2013-01-13 10:26:00,22.5,13.9,30.37,ENE,61,0.0,0.0,69,0.00,,CLR,0.00,VWS V14.01,2013-01-13 16:26:00,
2013-01-13 10:31:00,22.5,13.6,30.38,ENE,61,0.0,0.0,68,0.00,,CLR,0.00,VWS V14.01,2013-01-13 16:31:00,
2013-01-13 10:36:00,22.9,14.3,30.38,ENE,61,0.0,0.0,69,0.00,,CLR,0.00,VWS V14.01,2013-01-13 16:36:00,
2013-01-13 10:41:00,22.7,13.7,30.38,ENE,61,0.0,0.0,68,0.00,,CLR,0.00,VWS V14.01,2013-01-13 16:41:00,
2013-01-13 10:47:00,22.7,13.4,30.38,ENE,61,0.0,0.0,67,0.00,,CLR,0.00,VWS V14.01,2013-01-13 16:47:00,
2013-01-13 10:52:00,22.9,13.6,30.38,ENE,61,0.0,0.0,67,0.00,,CLR,0.00,VWS V14.01,2013-01-13 16:52:00,
2013-01-13 10:57:00,23.2,14.6,30.38,ENE,61,0.0,0.0,69,0.00,,CLR,0.00,VWS V14.01,2013-01-13 16:57:00,
2013-01-13 11:02:00,23.2,13.9,30.37,ENE,61,0.0,0.0,67,0.00,,FEW023,0.00,VWS V14.01,2013-01-13 17:02:00,
2013-01-13 11:07:00,23.5,14.5,30.37,ENE,61,0.0,0.0,68,0.00,,FEW023,0.00,VWS V14.01,2013-01-13 17:07:00,
2013-01-13 11:12:00,23.6,14.9,30.37,ENE,61,0.0,0.0,69,0.00,,FEW023,0.00,VWS V14.01,2013-01-13 17:12:00,
2013-01-13 11:17:00,23.9,14.9,30.36,ENE,61,0.0,0.0,68,0.00,,FEW023,0.00,VWS V14.01,2013-01-13 17:17:00,
2013-01-13 11:22:00,23.9,14.9,30.36,ENE,61,0.0,0.0,68,0.00,,FEW023,0.00,VWS V14.01,2013-01-13 17:22:00,
2013-01-13 11:27:00,24.2,15.5,30.36,ENE,61,0.0,0.0,69,0.00,,FEW023,0.00,VWS V14.01,2013-01-13 17:27:00,
2013-01-13 11:32:00,23.9,14.6,30.36,ENE,61,0.0,0.0,67,0.00,,FEW023,0.00,VWS V14.01,2013-01-13 17:32:00,
2013-01-13 11:37:00,23.9,14.6,30.36,ENE,61,0.0,0.0,67,0.00,,FEW023,0.00,VWS V14.01,2013-01-13 17:37:00,
2013-01-13 11:42:00,23.8,13.8,30.36,ENE,61,0.0,0.0,65,0.00,,FEW023,0.00,VWS V14.01,2013-01-13 17:42:00,
2013-01-13 11:47:00,24.2,14.5,30.36,ENE,61,0.0,0.0,66,0.00,,FEW023,0.00,VWS V14.01,2013-01-13 17:47:00,
2013-01-13 11:52:00,24.4,15.0,30.36,ENE,61,0.0,0.0,67,0.00,,FEW023,0.00,VWS V14.01,2013-01-13 17:52:00,
2013-01-13 11:57:00,24.7,15.0,30.36,NW,322,0.0,0.0,66,0.00,,FEW023,0.00,VWS V14.01,2013-01-13 17:57:00,
2013-01-13 12:02:00,24.7,14.6,30.35,West,277,0.0,0.0,65,0.00,,CLR,0.00,VWS V14.01,2013-01-13 18:02:00,
2013-01-13 12:07:00,25.0,15.3,30.35,West,281,0.0,0.0,66,0.00,,CLR,0.00,VWS V14.01,2013-01-13 18:07:00,
2013-01-13 12:12:00,25.0,13.8,30.35,WNW,284,0.0,0.0,62,0.00,,CLR,0.00,VWS V14.01,2013-01-13 18:12:00,
2013-01-13 12:17:00,25.1,14.3,30.34,North,4,0.0,0.0,63,0.00,,CLR,0.00,VWS V14.01,2013-01-13 18:17:00,
2013-01-13 12:23:00,25.4,15.3,30.34,NNE,16,0.0,0.0,65,0.00,,CLR,0.00,VWS V14.01,2013-01-13 18:23:00,
2013-01-13 12:28:00,25.3,14.5,30.34,NE,35,0.0,0.0,63,0.00,,CLR,0.00,VWS V14.01,2013-01-13 18:28:00,
2013-01-13 12:33:00,25.8,15.3,30.34,North,0,0.0,0.0,64,0.00,,CLR,0.00,VWS V14.01,2013-01-13 18:33:00,
2013-01-13 12:38:00,25.8,15.0,30.34,North,0,0.0,0.0,63,0.00,,CLR,0.00,VWS V14.01,2013-01-13 18:38:00,
2013-01-13 12:43:00,25.8,14.6,30.34,WNW,282,0.0,0.0,62,0.00,,CLR,0.00,VWS V14.01,2013-01-13 18:43:00,
2013-01-13 12:48:00,25.8,14.2,30.34,East,92,0.0,0.0,61,0.00,,CLR,0.00,VWS V14.01,2013-01-13 18:48:00,
2013-01-13 12:53:00,26.1,14.9,30.34,NNW,343,0.0,0.0,62,0.00,,CLR,0.00,VWS V14.01,2013-01-13 18:53:00,
2013-01-13 12:58:00,26.6,15.7,30.34,NW,316,0.0,0.0,63,0.00,,CLR,0.00,VWS V14.01,2013-01-13 18:58:00,
2013-01-13 13:03:00,26.7,15.1,30.33,West,271,0.0,0.0,61,0.00,,CLR,0.00,VWS V14.01,2013-01-13 19:03:00,
2013-01-13 13:08:00,26.7,15.1,30.33,NW,325,0.0,0.0,61,0.00,,CLR,0.00,VWS V14.01,2013-01-13 19:08:00,
2013-01-13 13:13:00,27.0,16.1,30.33,North,359,0.0,0.0,63,0.00,,CLR,0.00,VWS V14.01,2013-01-13 19:13:00,
2013-01-13 13:18:00,26.9,14.9,30.33,NNE,30,0.0,0.0,60,0.00,,CLR,0.00,VWS V14.01,2013-01-13 19:18:00,
2013-01-13 13:23:00,26.9,15.6,30.33,NNW,346,0.0,0.0,62,0.00,,CLR,0.00,VWS V14.01,2013-01-13 19:23:00,
2013-01-13 13:28:00,27.0,16.1,30.33,North,0,0.0,0.0,63,0.00,,CLR,0.00,VWS V14.01,2013-01-13 19:28:00,
2013-01-13 13:33:00,27.5,16.6,30.32,North,6,0.0,0.0,63,0.00,,CLR,0.00,VWS V14.01,2013-01-13 19:33:00,
2013-01-13 13:38:00,27.8,16.5,30.32,WSW,239,0.0,0.0,62,0.00,,CLR,0.00,VWS V14.01,2013-01-13 19:38:00,
2013-01-13 13:43:00,28.1,16.0,30.32,North,357,0.0,0.0,60,0.00,,CLR,0.00,VWS V14.01,2013-01-13 19:43:00,
2013-01-13 13:48:00,27.8,15.7,30.32,North,359,0.0,0.0,60,0.00,,CLR,0.00,VWS V14.01,2013-01-13 19:48:00,
2013-01-13 13:53:00,27.8,16.5,30.32,North,354,0.0,0.0,62,0.00,,CLR,0.00,VWS V14.01,2013-01-13 19:53:00,
2013-01-13 13:58:00,28.2,17.2,30.32,NW,326,0.0,0.0,63,0.00,,CLR,0.00,VWS V14.01,2013-01-13 19:58:00,
2013-01-13 14:00:00,29.5,16.6,30.33,North,354,0.0,1.0,58,0.00,,OVC041CB,0.00,VWS V14.01,2013-01-13 20:00:00,
2013-01-13 14:03:00,28.1,15.2,30.32,WNW,296,0.0,0.0,58,0.00,,CLR,0.00,VWS V14.01,2013-01-13 20:03:00,
2013-01-13 14:09:00,28.1,16.0,30.32,NE,35,0.0,0.0,60,0.00,,CLR,0.00,VWS V14.01,2013-01-13 20:09:00,
2013-01-13 14:14:00,28.4,16.3,30.32,NW,308,0.0,0.0,60,0.00,,CLR,0.00,VWS V14.01,2013-01-13 20:14:00,
2013-01-13 14:19:00,28.7,17.3,30.33,West,261,0.0,0.0,62,0.00,,CLR,0.00,VWS V14.01,2013-01-13 20:19:00,
2013-01-13 14:24:00,29.0,16.9,30.33,NE,37,0.0,0.0,60,0.00,,CLR,0.00,VWS V14.01,2013-01-13 20:24:00,
2013-01-13 14:29:00,29.1,17.0,30.33,NNE,16,0.0,0.0,60,0.00,,CLR,0.00,VWS V14.01,2013-01-13 20:29:00,
2013-01-13 14:34:00,29.0,16.5,30.33,North,359,0.0,0.0,59,0.00,,CLR,0.00,VWS V14.01,2013-01-13 20:34:00,
2013-01-13 14:39:00,29.1,16.6,30.33,North,353,0.0,0.0,59,0.00,,CLR,0.00,VWS V14.01,2013-01-13 20:39:00,
2013-01-13 14:44:00,29.4,17.2,30.33,ESE,121,0.0,0.0,60,0.00,,CLR,0.00,VWS V14.01,2013-01-13 20:44:00,
2013-01-13 14:49:00,29.4,17.2,30.33,ENE,59,0.0,0.0,60,0.00,,CLR,0.00,VWS V14.01,2013-01-13 20:49:00,
2013-01-13 14:54:00,29.4,16.9,30.33,NNW,340,0.0,0.0,59,0.00,,CLR,0.00,VWS V14.01,2013-01-13 20:54:00,
2013-01-13 14:59:00,29.5,16.6,30.33,NNW,346,0.0,1.0,58,0.00,,CLR,0.00,VWS V14.01,2013-01-13 20:59:00,
2013-01-13 15:04:00,29.7,16.8,30.33,WNW,292,0.0,0.0,58,0.00,,CLR,0.00,VWS V14.01,2013-01-13 21:04:00,
2013-01-13 15:09:00,29.7,16.4,30.33,North,352,0.0,0.0,57,0.00,,CLR,0.00,VWS V14.01,2013-01-13 21:09:00,
2013-01-13 15:14:00,29.4,16.1,30.33,NNE,16,0.0,0.0,57,0.00,,CLR,0.00,VWS V14.01,2013-01-13 21:14:00,
2013-01-13 15:19:00,29.3,15.6,30.34,North,359,0.0,0.0,56,0.00,,CLR,0.00,VWS V14.01,2013-01-13 21:19:00,
2013-01-13 15:24:00,29.4,16.5,30.34,West,260,0.0,0.0,58,0.00,,CLR,0.00,VWS V14.01,2013-01-13 21:24:00,
2013-01-13 15:29:00,29.5,16.2,30.34,NNW,347,0.0,0.0,57,0.00,,CLR,0.00,VWS V14.01,2013-01-13 21:29:00,
2013-01-13 15:34:00,29.5,17.0,30.33,NNE,17,0.0,0.0,59,0.00,,CLR,0.00,VWS V14.01,2013-01-13 21:34:00,
2013-01-13 15:39:00,29.4,16.9,30.33,NNE,14,0.0,0.0,59,0.00,,CLR,0.00,VWS V14.01,2013-01-13 21:39:00,
2013-01-13 15:44:00,29.3,16.4,30.33,North,354,0.0,0.0,58,0.00,,CLR,0.00,VWS V14.01,2013-01-13 21:44:00,
2013-01-13 15:50:00,29.4,16.5,30.33,North,357,0.0,0.0,58,0.00,,CLR,0.00,VWS V14.01,2013-01-13 21:50:00,
2013-01-13 15:55:00,29.4,16.9,30.33,NNE,16,0.0,0.0,59,0.00,,CLR,0.00,VWS V14.01,2013-01-13 21:55:00,
2013-01-13 16:00:00,29.3,16.8,30.34,North,10,0.0,0.0,59,0.00,,CLR,0.00,VWS V14.01,2013-01-13 22:00:00,
2013-01-13 16:05:00,29.3,16.8,30.34,North,354,0.0,0.0,59,0.00,,CLR,0.00,VWS V14.01,2013-01-13 22:05:00,
2013-01-13 16:10:00,29.1,16.2,30.34,NNW,328,0.0,0.0,58,0.00,,CLR,0.00,VWS V14.01,2013-01-13 22:10:00,
2013-01-13 16:15:00,29.1,16.6,30.34,NNE,17,0.0,0.0,59,0.00,,CLR,0.00,VWS V14.01,2013-01-13 22:15:00,
2013-01-13 16:20:00,29.0,16.5,30.34,North,11,0.0,0.0,59,0.00,,CLR,0.00,VWS V14.01,2013-01-13 22:20:00,
2013-01-13 16:25:00,28.8,16.3,30.34,North,8,0.0,0.0,59,0.00,,CLR,0.00,VWS V14.01,2013-01-13 22:25:00,
2013-01-13 16:30:00,28.8,16.3,30.34,North,359,0.0,0.0,59,0.00,,CLR,0.00,VWS V14.01,2013-01-13 22:30:00,
2013-01-13 16:35:00,28.7,15.8,30.34,North,354,0.0,0.0,58,0.00,,CLR,0.00,VWS V14.01,2013-01-13 22:35:00,
2013-01-13 16:40:00,28.8,15.1,30.34,North,0,5.0,6.0,56,0.00,,CLR,0.00,VWS V14.01,2013-01-13 22:40:00,
2013-01-13 16:45:00,28.7,15.4,30.35,North,359,2.0,7.0,57,0.00,,CLR,0.00,VWS V14.01,2013-01-13 22:45:00,
2013-01-13 16:50:00,28.5,15.6,30.35,NNE,14,3.0,7.0,58,0.00,,CLR,0.00,VWS V14.01,2013-01-13 22:50:00,
2013-01-13 16:55:00,28.4,15.5,30.35,NNW,343,2.0,7.0,58,0.00,,CLR,0.00,VWS V14.01,2013-01-13 22:55:00,
2013-01-13 17:00:00,28.2,14.9,30.35,NNW,347,1.0,7.0,57,0.00,,CLR,0.00,VWS V14.01,2013-01-13 23:00:00,
2013-01-13 17:05:00,28.1,16.0,30.35,North,354,3.0,7.0,60,0.00,,CLR,0.00,VWS V14.01,2013-01-13 23:05:00,
2013-01-13 17:10:00,27.8,16.1,30.35,North,4,0.0,8.0,61,0.00,,CLR,0.00,VWS V14.01,2013-01-13 23:10:00,
2013-01-13 17:15:00,27.6,16.3,30.36,North,359,0.0,8.0,62,0.00,,CLR,0.00,VWS V14.01,2013-01-13 23:15:00,
2013-01-13 17:20:00,27.3,16.0,30.36,NE,34,2.0,8.0,62,0.00,,CLR,0.00,VWS V14.01,2013-01-13 23:20:00,
2013-01-13 17:25:00,27.0,15.7,30.36,North,356,0.0,8.0,62,0.00,,CLR,0.00,VWS V14.01,2013-01-13 23:25:00,
2013-01-13 17:31:00,26.9,16.0,30.36,North,359,2.0,8.0,63,0.00,,CLR,0.00,VWS V14.01,2013-01-13 23:31:00,
2013-01-13 17:36:00,26.7,15.8,30.36,North,353,2.0,8.0,63,0.00,,CLR,0.00,VWS V14.01,2013-01-13 23:36:00,
2013-01-13 17:41:00,26.4,15.9,30.36,North,352,0.0,8.0,64,0.00,,CLR,0.00,VWS V14.01,2013-01-13 23:41:00,
2013-01-13 17:46:00,26.3,16.1,30.36,North,352,0.0,8.0,65,0.00,,CLR,0.00,VWS V14.01,2013-01-13 23:46:00,
2013-01-13 17:51:00,26.0,16.2,30.36,North,352,0.0,8.0,66,0.00,,CLR,0.00,VWS V14.01,2013-01-13 23:51:00,
2013-01-13 17:56:00,25.8,16.0,30.36,North,353,0.0,8.0,66,0.00,,CLR,0.00,VWS V14.01,2013-01-13 23:56:00,
2013-01-13 18:01:00,25.7,16.3,30.37,North,359,2.0,2.0,67,0.00,,CLR,0.00,VWS V14.01,2013-01-14 00:01:00,
2013-01-13 18:06:00,25.7,15.9,30.37,North,354,0.0,5.0,66,0.00,,CLR,0.00,VWS V14.01,2013-01-14 00:06:00,
2013-01-13 18:11:00,25.6,15.8,30.37,North,359,2.0,5.0,66,0.00,,CLR,0.00,VWS V14.01,2013-01-14 00:11:00,
2013-01-13 18:16:00,25.4,15.6,30.37,North,349,0.0,5.0,66,0.00,,CLR,0.00,VWS V14.01,2013-01-14 00:16:00,
2013-01-13 18:21:00,25.3,15.9,30.37,North,352,0.0,5.0,67,0.00,,CLR,0.00,VWS V14.01,2013-01-14 00:21:00,
2013-01-13 18:26:00,25.1,15.7,30.37,North,352,0.0,5.0,67,0.00,,CLR,0.00,VWS V14.01,2013-01-14 00:26:00,
2013-01-13 18:31:00,25.0,15.6,30.37,North,352,1.0,5.0,67,0.00,,CLR,0.00,VWS V14.01,2013-01-14 00:31:00,
2013-01-13 18:36:00,24.8,15.4,30.37,NNW,342,2.0,5.0,67,0.00,,CLR,0.00,VWS V14.01,2013-01-14 00:36:00,
2013-01-13 18:41:00,24.8,15.4,30.37,North,359,0.0,5.0,67,0.00,,CLR,0.00,VWS V14.01,2013-01-14 00:41:00,
2013-01-13 18:46:00,24.8,15.4,30.37,North,353,0.0,5.0,67,0.00,,CLR,0.00,VWS V14.01,2013-01-14 00:46:00,
2013-01-13 18:51:00,24.8,15.4,30.37,North,359,0.0,6.0,67,0.00,,CLR,0.00,VWS V14.01,2013-01-14 00:51:00,
2013-01-13 18:56:00,24.8,15.4,30.37,NNE,18,0.0,6.0,67,0.00,,CLR,0.00,VWS V14.01,2013-01-14 00:56:00,
2013-01-13 19:01:00,24.7,15.3,30.37,NNE,13,0.0,2.0,67,0.00,,CLR,0.00,VWS V14.01,2013-01-14 01:01:00,
2013-01-13 19:06:00,24.5,15.1,30.37,North,0,0.0,5.0,67,0.00,,CLR,0.00,VWS V14.01,2013-01-14 01:06:00,
2013-01-13 19:11:00,24.4,15.4,30.37,North,359,5.0,5.0,68,0.00,,CLR,0.00,VWS V14.01,2013-01-14 01:11:00,
2013-01-13 19:17:00,24.4,15.4,30.37,North,354,1.0,5.0,68,0.00,,CLR,0.00,VWS V14.01,2013-01-14 01:17:00,
2013-01-13 19:22:00,24.2,14.8,30.37,North,353,2.0,6.0,67,0.00,,CLR,0.00,VWS V14.01,2013-01-14 01:22:00,
2013-01-13 19:27:00,24.2,15.2,30.37,North,353,1.0,6.0,68,0.00,,CLR,0.00,VWS V14.01,2013-01-14 01:27:00,
2013-01-13 19:32:00,24.1,15.1,30.39,North,356,0.0,6.0,68,0.00,,CLR,0.00,VWS V14.01,2013-01-14 01:32:00,
2013-01-13 19:37:00,23.9,14.9,30.39,North,356,0.0,6.0,68,0.00,,CLR,0.00,VWS V14.01,2013-01-14 01:37:00,
2013-01-13 19:42:00,23.8,14.8,30.39,North,356,0.0,6.0,68,0.00,,CLR,0.00,VWS V14.01,2013-01-14 01:42:00,
2013-01-13 19:47:00,23.6,14.6,30.39,North,356,0.0,6.0,68,0.00,,CLR,0.00,VWS V14.01,2013-01-14 01:47:00,
2013-01-13 19:52:00,23.6,14.9,30.39,North,356,0.0,6.0,69,0.00,,CLR,0.00,VWS V14.01,2013-01-14 01:52:00,
2013-01-13 19:57:00,23.5,14.8,30.39,North,356,0.0,6.0,69,0.00,,CLR,0.00,VWS V14.01,2013-01-14 01:57:00,
2013-01-13 20:02:00,23.3,14.6,30.39,North,356,0.0,2.0,69,0.00,,CLR,0.00,VWS V14.01,2013-01-14 02:02:00,
2013-01-13 20:07:00,23.5,14.8,30.39,North,357,0.0,2.0,69,0.00,,CLR,0.00,VWS V14.01,2013-01-14 02:07:00,
2013-01-13 20:12:00,23.3,14.6,30.39,North,359,0.0,2.0,69,0.00,,CLR,0.00,VWS V14.01,2013-01-14 02:12:00,
2013-01-13 20:17:00,23.5,14.8,30.38,North,6,0.0,3.0,69,0.00,,CLR,0.00,VWS V14.01,2013-01-14 02:17:00,
2013-01-13 20:22:00,23.5,14.5,30.38,NNW,344,0.0,3.0,68,0.00,,CLR,0.00,VWS V14.01,2013-01-14 02:22:00,
2013-01-13 20:27:00,23.3,14.6,30.38,NNW,344,0.0,3.0,69,0.00,,CLR,0.00,VWS V14.01,2013-01-14 02:27:00,
2013-01-13 20:32:00,23.2,14.6,30.38,NNW,344,1.0,3.0,69,0.00,,CLR,0.00,VWS V14.01,2013-01-14 02:32:00,
2013-01-13 20:37:00,23.2,14.6,30.38,NNW,346,0.0,3.0,69,0.00,,CLR,0.00,VWS V14.01,2013-01-14 02:37:00,
2013-01-13 20:42:00,23.0,14.4,30.38,NNW,346,2.0,3.0,69,0.00,,CLR,0.00,VWS V14.01,2013-01-14 02:42:00,
2013-01-13 20:47:00,23.0,14.7,30.38,NNW,346,0.0,3.0,70,0.00,,CLR,0.00,VWS V14.01,2013-01-14 02:47:00,
2013-01-13 20:52:00,22.9,14.6,30.38,NNW,346,0.0,3.0,70,0.00,,CLR,0.00,VWS V14.01,2013-01-14 02:52:00,
2013-01-13 20:57:00,23.0,14.7,30.38,NNW,347,0.0,3.0,70,0.00,,CLR,0.00,VWS V14.01,2013-01-14 02:57:00,
2013-01-13 21:02:00,23.2,15.2,30.39,NNW,347,0.0,2.0,71,0.00,,CLR,0.00,VWS V14.01,2013-01-14 03:02:00,
2013-01-13 21:07:00,23.3,15.3,30.39,NNW,347,0.0,2.0,71,0.00,,CLR,0.00,VWS V14.01,2013-01-14 03:07:00,
2013-01-13 21:13:00,23.3,15.0,30.39,NNW,347,0.0,2.0,70,0.00,,CLR,0.00,VWS V14.01,2013-01-14 03:13:00,
2013-01-13 21:18:00,23.3,15.0,30.39,NNW,347,0.0,2.0,70,0.00,,CLR,0.00,VWS V14.01,2013-01-14 03:18:00,
2013-01-13 21:23:00,23.2,15.2,30.39,NNW,347,0.0,2.0,71,0.00,,CLR,0.00,VWS V14.01,2013-01-14 03:23:00,
2013-01-13 21:28:00,23.2,15.2,30.39,NNW,347,0.0,2.0,71,0.00,,CLR,0.00,VWS V14.01,2013-01-14 03:28:00,
2013-01-13 21:33:00,23.0,15.0,30.40,NNW,347,0.0,2.0,71,0.00,,CLR,0.00,VWS V14.01,2013-01-14 03:33:00,
2013-01-13 21:38:00,23.0,15.0,30.40,NNW,347,0.0,2.0,71,0.00,,CLR,0.00,VWS V14.01,2013-01-14 03:38:00,
2013-01-13 21:43:00,22.9,15.2,30.40,NNW,347,0.0,2.0,72,0.00,,CLR,0.00,VWS V14.01,2013-01-14 03:43:00,
2013-01-13 21:48:00,22.9,14.9,30.40,NNW,347,0.0,2.0,71,0.00,,CLR,0.00,VWS V14.01,2013-01-14 03:48:00,
2013-01-13 21:53:00,22.9,15.2,30.40,NNW,347,0.0,2.0,72,0.00,,CLR,0.00,VWS V14.01,2013-01-14 03:53:00,
2013-01-13 21:58:00,22.9,15.2,30.40,NNW,347,0.0,2.0,72,0.00,,CLR,0.00,VWS V14.01,2013-01-14 03:58:00,
2013-01-13 22:03:00,22.9,15.2,30.41,NNW,347,1.0,2.0,72,0.00,,CLR,0.00,VWS V14.01,2013-01-14 04:03:00,
2013-01-13 22:08:00,22.7,15.1,30.41,NNW,347,0.0,2.0,72,0.00,,CLR,0.00,VWS V14.01,2013-01-14 04:08:00,
2013-01-13 22:13:00,22.7,15.1,30.41,NNW,347,0.0,2.0,72,0.00,,CLR,0.00,VWS V14.01,2013-01-14 04:13:00,
2013-01-13 22:18:00,22.7,15.4,30.41,NNW,347,0.0,2.0,73,0.00,,CLR,0.00,VWS V14.01,2013-01-14 04:18:00,
2013-01-13 22:23:00,22.7,15.4,30.41,NNW,347,1.0,3.0,73,0.00,,CLR,0.00,VWS V14.01,2013-01-14 04:23:00,
2013-01-13 22:28:00,22.5,14.5,30.41,NNW,347,0.0,3.0,71,0.00,,CLR,0.00,VWS V14.01,2013-01-14 04:28:00,
2013-01-13 22:33:00,22.5,14.9,30.41,NNW,347,2.0,3.0,72,0.00,,CLR,0.00,VWS V14.01,2013-01-14 04:33:00,
2013-01-13 22:38:00,22.4,15.1,30.41,NNW,347,2.0,3.0,73,0.00,,CLR,0.00,VWS V14.01,2013-01-14 04:38:00,
2013-01-13 22:43:00,22.4,15.1,30.41,North,349,0.0,3.0,73,0.00,,CLR,0.00,VWS V14.01,2013-01-14 04:43:00,
2013-01-13 22:48:00,22.2,14.9,30.42,North,349,0.0,3.0,73,0.00,,CLR,0.00,VWS V14.01,2013-01-14 04:48:00,
2013-01-13 22:53:00,22.2,14.9,30.42,North,349,0.0,3.0,73,0.00,,CLR,0.00,VWS V14.01,2013-01-14 04:53:00,
2013-01-13 22:58:00,22.2,14.9,30.42,North,349,1.0,3.0,73,0.00,,CLR,0.00,VWS V14.01,2013-01-14 04:58:00,
2013-01-13 23:01:00,22.1,14.8,30.42,North,349,0.0,2.0,73,0.00,,CLR,0.00,VWS V14.01,2013-01-14 05:01:00,
2013-01-13 23:03:00,22.1,14.8,30.42,North,349,0.0,2.0,73,0.00,,CLR,0.00,VWS V14.01,2013-01-14 05:03:00,
2013-01-13 23:04:00,22.1,14.8,30.42,North,349,0.0,2.0,73,0.00,,CLR,0.00,VWS V14.01,2013-01-14 05:04:00,
2013-01-13 23:05:00,22.1,14.8,30.42,North,349,0.0,2.0,73,0.00,,CLR,0.00,VWS V14.01,2013-01-14 05:05:00,
2013-01-13 23:10:00,21.9,14.6,30.42,North,349,0.0,2.0,73,0.00,,CLR,0.00,VWS V14.01,2013-01-14 05:10:00,
2013-01-13 23:15:00,21.9,14.6,30.44,North,349,0.0,2.0,73,0.00,,CLR,0.00,VWS V14.01,2013-01-14 05:15:00,
2013-01-13 23:20:00,22.1,14.8,30.44,North,349,0.0,2.0,73,0.00,,CLR,0.00,VWS V14.01,2013-01-14 05:20:00,
2013-01-13 23:25:00,22.1,14.5,30.44,North,349,0.0,2.0,72,0.00,,CLR,0.00,VWS V14.01,2013-01-14 05:25:00,
2013-01-13 23:30:00,21.9,14.3,30.45,North,349,1.0,2.0,72,0.00,,CLR,0.00,VWS V14.01,2013-01-14 05:30:00,
2013-01-13 23:35:00,21.9,14.6,30.45,North,349,2.0,2.0,73,0.00,,CLR,0.00,VWS V14.01,2013-01-14 05:35:00,
2013-01-13 23:40:00,21.9,14.6,30.45,North,353,0.0,2.0,73,0.00,,CLR,0.00,VWS V14.01,2013-01-14 05:40:00,
2013-01-13 23:45:00,21.8,14.5,30.46,North,353,1.0,2.0,73,0.00,,CLR,0.00,VWS V14.01,2013-01-14 05:45:00,
2013-01-13 23:50:00,21.8,14.5,30.46,North,353,0.0,2.0,73,0.00,,CLR,0.00,VWS V14.01,2013-01-14 05:50:00,
2013-01-13 23:55:00,21.8,14.5,30.46,North,353,0.0,2.0,73,0.00,,CLR,0.00,VWS V14.01,2013-01-14 05:55:00,